Regional Weather Roundup
Issued by NWS

Home | Current Version | Previous Version | Graphics & Text | Print | Product List | Glossary On
Versions: 1 2 3 4 5 6 7 8 9 10 11 12 13 14 15 16 17 18 19 20 21 22 23 24 25 26 27 28 29 30 31 32 33 34 35 36 37 38 39 40 41 42 43 44 45 46 47 48 49 50
000
ASUS43 KDTX 270810
RWRMI
MICHIGAN HOURLY REGIONAL WEATHER ROUNDUP
NATIONAL WEATHER SERVICE DETROIT/PONTIAC MI
400 AM EDT WED MAY 27 2015

NOTE: "FAIR" INDICATES FEW OR NO CLOUDS BELOW 12,000 FEET WITH NO
SIGNIFICANT WEATHER AND/OR OBSTRUCTION TO VISIBILITY.

MIZ047>049-052>055-059>063-066>070-074>076-081>083-270900-
SOUTHEAST LOWER MICHIGAN

CITY           SKY/WX    TMP DP  RH WIND       PRES   REMARKS
ADRIAN         PTCLDY    65  62  90 SW8       29.94S
ALMA           MOCLDY    65  61  88 S7        29.85F
ANN ARBOR      MOCLDY    65  61  87 SW8       29.93S
BAD AXE        MOCLDY    67  62  84 SW12G18   29.86R
CARO           PTCLDY    65  62  87 SW8       29.86R
DETROIT        CLOUDY    68  65  90 S12       29.93S
FLINT          MOCLDY    69  60  73 SW9       29.89R
GROSSE ILE     PTCLDY    70  64  83 SW9       29.93R
HILLSDALE      PTCLDY    65  62  90 SW7       29.94S
HOWELL         MOCLDY    65  60  82 S7        29.91S

CITY           SKY/WX    TMP DP  RH WIND       PRES   REMARKS
JACKSON        PTCLDY    65  59  81 SW12      29.91F
LAMBERTVILLE   MOCLDY    70  63  78 SW7       29.95S
LANSING        PTCLDY    66  60  81 SW13      29.88F
LAPEER         FAIR      65  61  86 SW7       29.89S
MASON          PTCLDY    63  58  86 CALM      29.90S
MONROE         MOCLDY    70  64  83 SW6       29.93R
MT. CLEMENS    PTCLDY    69  65  87 SW10      29.89S
PONTIAC        MOCLDY    65  62  90 S6        29.90S
PORT HOPE        N/A    N/A N/A N/A SW12      29.82S
PORT HURON     MOCLDY    66  64  94 S7        29.90S
TRI CITIES     MOCLDY    68  60  75 SW12      29.85S
MIDLAND        FAIR      65  60  83 S8        29.83S
TROY           MOCLDY    68  66  92 SW7       29.93S
SAGINAW HB     MOCLDY    66  63  88 SW14      29.85S
$$
MIZ043>046-050>051-056>058-064>065-071>073-077>080-270900-
SOUTHWEST LOWER MICHIGAN

CITY           SKY/WX    TMP DP  RH WIND       PRES   REMARKS
BATTLE CREEK   CLEAR     66  60  81 S13       29.89F
BENTON HARBOR  CLOUDY    68  59  73 SW14G24   29.85F
BIG RAPIDS     MOCLDY    62  58  87 S3        29.80S
COLDWATER      CLEAR     64  59  82 S6        29.92F
FREMONT        CLOUDY    64  61  91 SW14G24   29.80F
HOLLAND        CLOUDY    69  61  75 SW20G30   29.84F
GRAND RAPIDS   CLOUDY    67  61  81 S12       29.84F
IONIA          MOCLDY    66  60  81 S15       29.85S
KALAMAZOO      CLEAR     66  59  78 S14       29.88F
LUDINGTON      PTCLDY    61  57  86 SW22G29   29.77S
MARSHALL       CLEAR     64  59  85 S6        29.90F
MOUNT PLEASANT PTCLDY    65  60  86 S8        29.82F
MUSKEGON       CLOUDY    61  57  87 SW21G26   29.82R
SOUTH HAVEN    CLOUDY    68  59  73 SW8       29.85S
$$
MIZ016>042-270900-
NORTHERN LOWER MICHIGAN

CITY           SKY/WX    TMP DP  RH WIND       PRES   REMARKS
ALPENA         PTCLDY    66  61  84 SW13G24   29.76R
BEAVER ISLAND  CLOUDY    59  55  86 S14G20    29.67F
BELLAIRE       MOCLDY    64  57  78 S9G16     29.72S
CADILLAC       MOCLDY    62  58  88 SW17G23   29.77F
CHARLEVOIX     CLOUDY    63  58  84 S7        29.72F
FRANKFORT      CLEAR     63  54  73 S18G28    29.72S
GAYLORD        CLOUDY    63  59  87 SW16G25   29.75R
GRAYLING       MOCLDY    63  57  82 S9        29.78S
HARBOR SPRINGS CLOUDY    61  57  87 SW12G17   29.70S
HOUGHTON LAKE  PTCLDY    63  59  87 S12       29.80S
MANISTEE       CLEAR     63  55  77 SW10G21   29.75S
OSCODA         PTCLDY    65  62  91 SW12G20   29.79S
PELLSTON       CLOUDY    65  59  81 SW13G20   29.71R
ROGERS CITY    PTCLDY    65  62  90 SW9       29.74R
TRAVERSE CITY  CLEAR     64  57  78 S5        29.70S
$$
MIZ007>008-015-270900-
EASTERN UPPER MICHIGAN

CITY           SKY/WX    TMP DP  RH WIND       PRES   REMARKS
KINROSS        CLOUDY    63  63 100 SW9       29.68S
MACKINAC ISLAN CLOUDY    63  62  97 SW12G22   29.69R
NEWBERRY       CLOUDY    56  56  97 S10G18    29.64S
S. S. MARIE    CLOUDY    60  59  96 S6        29.67S
MUNISING         N/A     46  42  86 CALM      29.63F
$$
MIZ004>006-011>014-085-270900-
CENTRAL UPPER MICHIGAN

CITY           SKY/WX    TMP DP  RH WIND       PRES   REMARKS
MANISTIQUE     RAIN      46  45  97 S9        29.64S
ESCANABA       CLOUDY    50  46  87 E3        29.62S
MENOMINEE      CLOUDY    61  57  88 SW6       29.60S
SAWYER-GWINN   LGT RAIN  46  45  95 N10       29.63S VSB 1/2
$$
MIZ001>003-009>011-084-270900-
WESTERN UPPER MICHIGAN

CITY           SKY/WX    TMP DP  RH WIND       PRES   REMARKS
IRON MOUNTAIN  LGT RAIN  56  54  93 NW5       29.63R FOG
HOUGHTON       CLOUDY    51  49  92 N9G17     29.67F
COPPER HARBOR    N/A     40  39  97 N8        29.69R WCI  34
IRONWOOD       CLOUDY    48  48 100 W6        29.73S
$$

ABBREVIATIONS USED IN REMARKS
   TC - TEMPERATURE IN CELSIUS
  WCI - WIND CHILL INDEX
   HX - HEAT INDEX
  VSB - VISIBILITY




USA.gov is the U.S. government's official web portal to all federal, state and local government web resources and services.